User: anonymous   Login
Location: Unspecified
(0.0000°N, 0.0000°E)
Time: 19:14:53
(UTC+00:00)
Language:

BIROS - Orbit

View from above orbital plane
View from above orbital plane
View from above satellite
View from above satellite

Ground track
Ground track

The orbit data is extracted from the following two-line orbital elements,

1 41604U 16040F   18050.74777659 +.00000510 +00000-0 +25958-4 0  9991
2 41604 097.4293 115.3318 0010931 283.5799 076.4218 15.21226749092312
Epoch (UTC): 19 February 2018 17:56:47
Eccentricity: 0.0010931
inclination: 97.4293°
perigee height: 494 km
apogee height: 509 km
right ascension of ascending node: 115.3318°
argument of perigee: 283.5799°
revolutions per day: 15.21226749
mean anomaly at epoch: 76.4218°
orbit number at epoch: 9231

The dashed part of the orbit path shows where the satellite is in the earth's shadow,  

DLR